[[{"header":{"parameterUnit":"m.s-1","parameterCategory":1,"la1":30.2991,"la2":30.254,"lo1":-89.0895,"lo2":-89.0444,"dy":0.0017,"dx":0.0017,"nx":28,"ny":28,"refTime":"2024-05-16T03:00:00:Z","depth":0,"parameterNumber":2,"parameterNumberName":"U-component_of_WINDS"},"data":[0,0,0,0,0,0,0,0,0,0,0,0,0,0,0,0,0,0,0,0,0,0,0,0,0,0,0,0,0,0,0,0,0,0,0,0,0,0,0,0,0,0,0,0,0,0,0,0,0,0,0,0,0,0,0,0,0,0,-2.7987,-2.7986,0,-2.7889,-2.7888,-2.7887,-2.7805,-2.7804,-2.7804,-2.7803,-2.7699,-2.7698,-2.7696,0,0,0,0,0,0,0,0,0,0,0,0,0,-2.8104,-2.8102,-2.7987,-2.7986,-2.7985,-2.7889,-2.7888,-2.7886,-2.7805,-2.7804,-2.7803,-2.7802,-2.77,-2.7698,-2.7695,0,0,0,0,0,0,0,0,0,0,0,0,0,-2.8034,-2.8101,-2.7987,-2.7933,-2.7927,-2.7889,-2.7888,-2.7886,-2.7806,-2.7804,-2.7803,-2.7802,-2.7701,-2.7698,-2.7695,-2.7702,0,0,-2.7686,-2.7685,0,0,0,0,0,0,0,0,-2.8038,-2.803,-2.7942,-2.7937,-2.793,-2.7858,-2.7891,-2.7824,-2.7806,-2.7852,-2.7803,-2.7801,-2.7753,-2.7746,-2.773,-2.7698,-2.7693,-2.7686,-2.7684,-2.7683,-2.7682,0,0,0,0,0,0,0,-2.8043,-2.8033,-2.7948,-2.7941,-2.7934,-2.7913,-2.7902,-2.7878,-2.7811,-2.7848,-2.7842,-2.7831,-2.7749,-2.7733,-2.7727,-2.7692,-2.7686,-2.7683,-2.7681,-2.768,-2.766,-2.7662,0,0,0,0,0,0,-2.8056,-2.8038,-2.7951,-2.7945,-2.7982,-2.7912,-2.7899,-2.7882,-2.7811,-2.7799,-2.7832,-2.7828,-2.7739,-2.773,-2.7723,-2.7726,-2.7683,-2.768,-2.7678,-2.7659,-2.7661,-2.7662,0,0,0,0,0,0,-2.8059,-2.805,-2.7955,-2.799,-2.7976,-2.7911,-2.7893,-2.7881,-2.7865,-2.7799,-2.7787,-2.7828,-2.7737,-2.7727,-2.7708,-2.7721,-2.7679,-2.7676,-2.7658,-2.766,-2.7661,-2.7733,0,0,0,0,0,0,-2.8063,-2.8051,-2.8053,-2.7991,-2.7975,-2.7943,-2.7894,-2.788,-2.786,-2.7853,-2.7792,-2.778,-2.7736,-2.7713,-2.7705,-2.7717,-2.7674,-2.7656,-2.7659,-2.7661,-2.7729,-2.7737,-2.7744,0,0,0,0,0,-2.8067,-2.8077,-2.8054,-2.8044,-2.7977,-2.7944,-2.7935,-2.7884,-2.7862,-2.7863,-2.7821,-2.7782,-2.7722,-2.7712,-2.7703,-2.7713,-2.7655,-2.7658,-2.7661,-2.7726,-2.7736,-2.7744,0,0,0,0,0,0,-2.8141,-2.8068,-2.8041,-2.8031,-2.7994,-2.793,-2.793,-2.7896,-2.7864,-2.7858,-2.7796,-2.7783,-2.7771,-2.774,-2.773,-2.7717,-2.7683,-2.7685,-2.7736,-2.7745,-2.7753,-2.7759,-2.7671,0,0,0,0,0,-2.8157,-2.8137,-2.8073,-2.807,-2.8054,-2.7996,-2.7979,-2.7944,-2.7903,-2.7887,-2.7843,-2.7805,-2.7777,-2.776,-2.7731,-2.7726,-2.7711,-2.7729,-2.7736,-2.7742,-2.7743,-2.7738,-2.7745,-2.7671,-2.7671,-2.7671,0,0,-2.8187,-2.8145,-2.8136,-2.8084,-2.8052,-2.8032,-2.7983,-2.7964,-2.7948,-2.7883,-2.7862,-2.783,-2.7783,-2.7771,-2.7764,-2.7745,-2.7761,-2.7746,-2.7752,-2.7749,-2.7741,-2.7748,-2.7755,-2.7673,-2.7673,-2.7672,0,0,-2.8233,-2.82,-2.8193,-2.8162,-2.8114,-2.8076,-2.8075,-2.8016,-2.7992,-2.7971,-2.7922,-2.7903,-2.7857,-2.7825,-2.7803,-2.7839,-2.7802,-2.7832,-2.7869,-2.7865,-2.7871,-2.7875,-2.7887,-2.7892,-2.7834,-2.7834,-2.7834,0,-2.8277,-2.8245,-2.8194,-2.8178,-2.8156,-2.8099,-2.8092,-2.8064,-2.8009,-2.7995,-2.7976,-2.7917,-2.7881,-2.7861,-2.787,-2.7855,-2.7851,-2.7837,-2.7874,-2.7879,-2.7882,-2.7892,-2.7897,-2.7837,-2.7837,-2.7837,-2.7836,0,-2.8301,-2.8281,-2.8281,-2.823,-2.8209,-2.8198,-2.8144,-2.8129,-2.8096,-2.806,-2.804,-2.7995,-2.7956,-2.7949,-2.7916,-2.7925,-2.7915,-2.7886,-2.7851,-2.7894,-2.7902,-2.7906,-2.7843,-2.7842,-2.784,-2.7839,0,0,-2.8387,-2.831,-2.8311,-2.8287,-2.8231,-2.8214,-2.8201,-2.8164,-2.8151,-2.8116,-2.8102,-2.8066,-2.8039,-2.8015,-2.7978,-2.7975,-2.8005,-2.7946,-2.7944,-2.7957,-2.801,-2.8031,-2.8036,-2.7982,-2.7982,-2.7983,-2.8014,0,-2.8422,-2.8395,-2.8349,-2.8336,-2.8316,-2.8262,-2.825,-2.8215,-2.8181,-2.8159,-2.8122,-2.8096,-2.8064,-2.8049,-2.8043,-2.8003,-2.8015,-2.8,-2.7966,-2.7966,-2.7977,-2.8041,-2.8061,-2.8093,-2.8017,-2.8017,-2.8018,0,-2.8458,-2.8427,-2.8413,-2.8359,-2.8349,-2.8339,-2.8302,-2.8282,-2.8241,-2.8216,-2.819,-2.8151,-2.8133,-2.8104,-2.8079,-2.807,-2.8054,-2.8033,-2.8032,-2.8025,-2.7993,-2.8033,-2.8102,-2.8106,-2.8023,-2.8022,-2.8022,0,-2.852,-2.8475,-2.8461,-2.8442,-2.838,-2.8374,-2.8348,-2.8305,-2.8286,-2.8254,-2.8241,-2.8207,-2.8188,-2.8163,-2.8115,-2.8099,-2.8095,-2.8062,-2.8073,-2.8074,-2.8072,-2.8072,-2.8137,-2.8066,-2.8066,-2.8066,-2.8066,0,-2.8563,-2.8555,-2.8488,-2.8478,-2.8469,-2.8417,-2.8409,-2.8377,-2.8341,-2.8324,-2.8277,-2.8262,-2.8201,-2.818,-2.8143,-2.8127,-2.8119,-2.8098,-2.8088,-2.8101,-2.8103,-2.8087,-2.8083,-2.8067,-2.8067,-2.8067,-2.8067,0,-2.8629,-2.8584,-2.8564,-2.8507,-2.8493,-2.8488,-2.8439,-2.8428,-2.8394,-2.8373,-2.8365,-2.831,-2.8282,-2.8233,-2.8191,-2.8167,-2.8157,-2.8141,-2.8171,-2.8164,-2.8178,-2.8177,-2.8233,-2.8237,-2.8166,-2.8167,-2.8168,0,-2.8657,-2.8651,-2.8594,-2.858,-2.8556,-2.8534,-2.8515,-2.8464,-2.8446,-2.84,-2.8394,-2.8363,-2.8335,-2.8293,-2.8248,-2.8216,-2.8198,-2.822,-2.8192,-2.8206,-2.8196,-2.8196,-2.8194,-2.8225,-2.8226,-2.8227,-2.8228,0,-2.8712,-2.8691,-2.8665,-2.8633,-2.8612,-2.8583,-2.8552,-2.8543,-2.8486,-2.8468,-2.8439,-2.8418,-2.8376,-2.8345,-2.8307,-2.8279,-2.8243,-2.8237,-2.8238,-2.8249,-2.8266,-2.8255,-2.8186,-2.8235,-2.8234,-2.8234,-2.8233,-2.8233,-2.8759,-2.8751,-2.871,-2.8683,-2.8655,-2.8628,-2.8615,-2.8579,-2.8555,-2.8517,-2.8489,-2.8462,-2.8422,-2.8367,-2.8342,-2.832,-2.8304,-2.8305,-2.8305,-2.8305,-2.831,-2.8273,-2.8313,-2.8313,-2.8313,-2.8313,-2.8312,0,-2.881,-2.8782,-2.8758,-2.8717,-2.8696,-2.8667,-2.8632,-2.8616,-2.8593,-2.856,-2.8534,-2.8501,-2.8472,-2.8426,-2.8393,-2.8384,-2.8367,-2.8377,-2.8376,-2.837,-2.8327,-2.8329,-2.8392,-2.8392,-2.8392,-2.8392,-2.8392,-2.8392,-2.8834,-2.8818,-2.8792,-2.8762,-2.8733,-2.8707,-2.869,-2.8664,-2.8637,-2.8603,-2.8579,-2.855,-2.8511,-2.8475,-2.8447,-2.8434,-2.8423,-2.8438,-2.842,-2.838,-2.8373,-2.8366,-2.8367,-2.8437,-2.8437,-2.8464,-2.8464,-2.8464]},{"header":{"parameterUnit":"m.s-1","parameterCategory":1,"la1":30.2991,"la2":30.254,"lo1":-89.0895,"lo2":-89.0444,"dy":0.0017,"dx":0.0017,"nx":28,"ny":28,"refTime":"2024-05-16T03:00:00:Z","depth":0,"parameterNumber":3,"parameterNumberName":"V-component_of_WINDS"},"data":[0,0,0,0,0,0,0,0,0,0,0,0,0,0,0,0,0,0,0,0,0,0,0,0,0,0,0,0,0,0,0,0,0,0,0,0,0,0,0,0,0,0,0,0,0,0,0,0,0,0,0,0,0,0,0,0,0,0,2.4347,2.4347,0,2.4344,2.4344,2.4344,2.4393,2.4394,2.4395,2.4397,2.4389,2.4388,2.4386,0,0,0,0,0,0,0,0,0,0,0,0,0,2.4393,2.4392,2.4347,2.4347,2.4347,2.4344,2.4344,2.4344,2.4392,2.4394,2.4396,2.4397,2.439,2.4388,2.4386,0,0,0,0,0,0,0,0,0,0,0,0,0,2.4379,2.4391,2.4347,2.4371,2.4373,2.4344,2.4344,2.4344,2.4392,2.4394,2.4396,2.4398,2.439,2.4388,2.4386,2.4332,0,0,2.438,2.4379,0,0,0,0,0,0,0,0,2.438,2.4378,2.4367,2.4369,2.4372,2.4371,2.4357,2.434,2.4392,2.4385,2.4397,2.4399,2.4381,2.438,2.4375,2.4332,2.4332,2.4379,2.4378,2.4377,2.4376,0,0,0,0,0,0,0,2.4381,2.4378,2.4346,2.4367,2.437,2.4381,2.4381,2.4354,2.4372,2.4385,2.4389,2.4388,2.4383,2.4377,2.4375,2.4332,2.4379,2.4377,2.4376,2.4375,2.4246,2.4244,0,0,0,0,0,0,2.4379,2.4378,2.4346,2.4345,2.4381,2.4379,2.4379,2.4369,2.4372,2.4375,2.4386,2.439,2.4379,2.4377,2.4375,2.4313,2.4377,2.4375,2.4374,2.4248,2.4246,2.4243,0,0,0,0,0,0,2.438,2.4376,2.4346,2.4363,2.436,2.4376,2.4364,2.4368,2.4362,2.4373,2.4376,2.4377,2.4381,2.4378,2.4343,2.4313,2.4374,2.4372,2.4251,2.4247,2.4245,2.4188,0,0,0,0,0,0,2.4381,2.4376,2.4356,2.4362,2.4359,2.4314,2.4362,2.4366,2.4359,2.4364,2.4365,2.4367,2.4382,2.4346,2.4341,2.4311,2.437,2.4253,2.4249,2.4246,2.4192,2.4183,2.4175,0,0,0,0,0,2.4382,2.4339,2.4354,2.435,2.4335,2.4313,2.4311,2.433,2.4356,2.4336,2.4343,2.4367,2.4318,2.4342,2.4337,2.4306,2.4255,2.425,2.4246,2.4196,2.4185,2.4175,0,0,0,0,0,0,2.4326,2.434,2.4357,2.4315,2.4313,2.4321,2.4296,2.4317,2.4306,2.4312,2.4335,2.4335,2.4296,2.4298,2.4325,2.4255,2.4291,2.4285,2.4255,2.4244,2.4236,2.4236,2.4369,0,0,0,0,0,2.4309,2.4292,2.4304,2.4265,2.4263,2.428,2.4271,2.4287,2.4284,2.4283,2.4288,2.4284,2.4268,2.4256,2.4242,2.4194,2.4194,2.417,2.4161,2.4154,2.4148,2.4123,2.4112,2.4228,2.4228,2.4228,0,0,2.4273,2.4279,2.4265,2.4254,2.4254,2.4234,2.4279,2.4255,2.4241,2.4279,2.4247,2.4251,2.4248,2.4206,2.4188,2.4206,2.4117,2.4148,2.4142,2.414,2.4117,2.4106,2.4096,2.4224,2.4225,2.4225,0,0,2.4198,2.42,2.4168,2.4168,2.4168,2.418,2.4173,2.4179,2.4183,2.4152,2.418,2.4163,2.4134,2.4132,2.4126,2.4052,2.4074,2.4047,2.4001,2.3976,2.3967,2.3959,2.3933,2.3923,2.4041,2.4041,2.4041,0,2.4152,2.4125,2.4149,2.4125,2.4119,2.4155,2.4123,2.4121,2.4116,2.4111,2.4132,2.4098,2.4098,2.4057,2.4039,2.4034,2.4026,2.4046,2.3967,2.3959,2.3952,2.3927,2.3917,2.4038,2.4038,2.4038,2.4039,0,2.4069,2.405,2.4024,2.402,2.4012,2.3983,2.4003,2.3991,2.4008,2.4017,2.3985,2.3988,2.3975,2.3967,2.3982,2.3928,2.3939,2.3963,2.4,2.3937,2.3914,2.3905,2.4033,2.4034,2.4035,2.4036,0,0,2.3956,2.3968,2.3958,2.3957,2.3961,2.3946,2.392,2.3909,2.3899,2.3895,2.3873,2.3849,2.3872,2.3866,2.3882,2.386,2.3802,2.3887,2.3887,2.3871,2.3742,2.3723,2.3712,2.3817,2.3815,2.3814,2.3742,0,2.3882,2.3839,2.3861,2.3815,2.3797,2.3833,2.381,2.3809,2.3818,2.3804,2.3813,2.3796,2.3827,2.3824,2.3805,2.3813,2.3776,2.3818,2.3796,2.3795,2.3795,2.37,2.368,2.3612,2.3733,2.3732,2.3731,0,2.379,2.3784,2.3737,2.3746,2.3739,2.3718,2.3711,2.3697,2.3698,2.3705,2.37,2.3721,2.3696,2.3733,2.3698,2.3726,2.3719,2.3721,2.3719,2.3717,2.3758,2.3694,2.3591,2.358,2.3717,2.3718,2.3719,0,2.3712,2.3692,2.3662,2.366,2.3669,2.3654,2.3657,2.366,2.3652,2.3646,2.3641,2.3631,2.3625,2.3617,2.3634,2.366,2.3597,2.3636,2.3602,2.3601,2.3586,2.3586,2.3479,2.3582,2.3582,2.3582,2.3582,0,2.3627,2.3596,2.3627,2.3608,2.3575,2.3601,2.3567,2.3574,2.3576,2.3559,2.3588,2.3571,2.3596,2.3581,2.3595,2.3564,2.3561,2.3566,2.357,2.3563,2.3562,2.3557,2.3562,2.358,2.358,2.3581,2.3581,0,2.3534,2.3553,2.3522,2.3535,2.3537,2.3512,2.3522,2.3505,2.3517,2.3494,2.349,2.3508,2.3492,2.351,2.3494,2.3504,2.3462,2.3473,2.3462,2.3465,2.343,2.3433,2.3315,2.3301,2.3413,2.3412,2.3412,0,2.3478,2.3456,2.3467,2.3458,2.346,2.3445,2.3438,2.3463,2.3455,2.3455,2.3437,2.3425,2.3415,2.3388,2.3399,2.3388,2.3399,2.3358,2.3397,2.3391,2.3398,2.3399,2.3397,2.335,2.3348,2.3347,2.3347,0,2.3377,2.3388,2.3378,2.3372,2.3363,2.3359,2.3357,2.3348,2.3374,2.3363,2.3348,2.3341,2.3327,2.3314,2.3306,2.3309,2.3331,2.3335,2.3326,2.3318,2.3313,2.3315,2.344,2.3337,2.3338,2.3338,2.3339,2.3339,2.33,2.3283,2.3288,2.3276,2.3278,2.3276,2.326,2.3271,2.326,2.3251,2.3267,2.3248,2.325,2.3243,2.3242,2.3228,2.3245,2.3233,2.3229,2.3226,2.3221,2.3316,2.3226,2.3227,2.3227,2.3227,2.3227,0,2.3201,2.3207,2.3196,2.3193,2.3184,2.3209,2.3208,2.3198,2.3182,2.3183,2.3174,2.3157,2.3145,2.3156,2.3146,2.3132,2.3142,2.3128,2.3129,2.3129,2.3206,2.3214,2.312,2.312,2.312,2.312,2.312,2.312,2.3148,2.3119,2.3131,2.3104,2.311,2.3093,2.3091,2.3089,2.309,2.3071,2.3061,2.3069,2.3074,2.3065,2.3055,2.3058,2.3053,2.3035,2.3042,2.3113,2.3124,2.3134,2.3142,2.3034,2.3034,2.2967,2.2966,2.2965]}]]